Home   Weather   Cruz Bay   Past weeks

Flag for US Virgin Islands Past Weather in Cruz Bay, US Virgin Islands — Yesterday and Last 2 Weeks

Now
84 °F

Clear.


Feels Like: 94 °F
Forecast: 83 / 88 °F
Wind: 12 mph from East

Location: Cyril E. King International Airport

Current Time: Aug 31, 2016 at 12:22:32 AM

Latest Report: Aug 30, 2016 at 10:53 PM


Visibility: 10 mi

Pressure: 30.05 "Hg

Humidity: 80%

Dew Point: 77 °F

Location of Cruz BayLocation

Past Weather in Cruz Bay — Graph

°F

Cruz Bay Temperature Yesterday

Maximum temperature yesterday: 90 °F (at 12:53 PM)
Minimum temperature yesterday: 81 °F (at 3:53 AM)
Average temperature yesterday: 85 °F

High & Low Weather Summary for the Past Weeks

 TemperatureHumidityPressure
High91 °F (Aug 21, 10:53 AM)100% (Aug 24, 2:53 PM)30.06 "Hg (Aug 24, 2:53 PM)
Low79 °F (Aug 27, 11:53 PM)59% (Aug 16, 3:53 PM)29.83 "Hg (Aug 24, 1:17 PM)
Average84 °F81%29.97 "Hg
* Reported Aug 15 10:53 PM — Aug 30 10:53 PM, Cruz Bay, Weather by CustomWeather, © 2016

Note: Actual official high and low records may vary slightly from our data, if they occured in-between our weather recording intervals... More about our weather records

Advertising

Cruz Bay Weather History for the Previous 24 Hours

Scroll right to see more
 ConditionsComfort  
Time TempWeatherWind HumidityBarometerVisibility
10:53 PM
Tue, Aug 30
84 °FClear.12 mph80%30.05 "Hg10 mi
9:53 PM84 °FClear.9 mph80%30.05 "Hg10 mi
8:53 PM84 °FClear.8 mph85%30.03 "Hg10 mi
7:53 PM84 °FClear.8 mph83%30.01 "Hg10 mi
6:53 PM85 °FClear.10 mph83%29.99 "Hg10 mi
5:53 PM87 °FScattered clouds.13 mph75%29.98 "Hg10 mi
5:01 PM87 °FScattered clouds.9 mph75%29.97 "Hg10 mi
4:53 PM88 °FPartly sunny.14 mph73%29.97 "Hg10 mi
3:53 PM88 °FMostly cloudy.8 mph73%29.98 "Hg10 mi
2:53 PM90 °FMostly cloudy.10 mph68%29.98 "Hg10 mi
1:53 PM90 °FPartly sunny.14 mph70%30.00 "Hg10 mi
12:53 PM90 °FScattered clouds.15 mph70%30.01 "Hg10 mi
11:53 AM88 °FPartly sunny.12 mph75%30.03 "Hg10 mi
10:53 AM88 °FBroken clouds.10 mph73%30.05 "Hg10 mi
9:53 AM88 °FBroken clouds.7 mph73%30.06 "Hg10 mi
8:53 AM87 °FScattered clouds.13 mph75%30.04 "Hg10 mi
7:53 AM86 °FSunny.8 mph77%30.03 "Hg10 mi
6:53 AM82 °FSunny.5 mph88%30.01 "Hg10 mi
5:53 AM81 °FClear.7 mph88%30.00 "Hg10 mi
4:53 AM82 °FClear.8 mph88%29.98 "Hg10 mi
3:53 AM81 °FClear.6 mph91%29.98 "Hg10 mi
2:53 AM82 °FClear.6 mph88%29.99 "Hg10 mi
1:53 AM82 °FClear.6 mph91%30.00 "Hg10 mi
12:53 AM82 °FClear.7 mph91%30.01 "Hg10 mi
Weather by CustomWeather, © 2016

See weather overviewHow to use our weather pages